User: anonymous   Login
Location: Unspecified
(0.0000°N, 0.0000°E)
Time: 15:40:09
(UTC+00:00)
Language:

CHUBUSAT 3 - Orbit

View from above orbital plane
View from above orbital plane
View from above satellite
View from above satellite

Ground track
Ground track

The orbit data is extracted from the following two-line orbital elements,

1 41339U 16012C   21331.11112281  .00000600  00000-0  39353-4 0  9990
2 41339  31.0112 228.5377 0013726 314.1342  45.8170 15.00837880317052
Epoch (UTC): 27 November 2021 02:40:01
Eccentricity: 0.0013726
inclination: 31.0112°
perigee height: 555 km
apogee height: 574 km
right ascension of ascending node: 228.5377°
argument of perigee: 314.1342°
revolutions per day: 15.00837880
mean anomaly at epoch: 45.8170°
orbit number at epoch: 31705

The dashed part of the orbit path shows where the satellite is in the earth's shadow,  

DLR